DW6222 Weather Reports


Display with metric or nautical units.
time (UTC)temp
F
wind
direction
speed
MPH
gust
MPH
rain 1hr
in
rain 24hr
in
rain mn
in
humidity
%
barometer
mb
20260509234540 48 240 3.0 4.0 0.00 0.00 0.00 54 1008.7
20260509233037 49 0 1.0 3.0 0.00 0.00 0.00 46 1008.5
20260509231552 49 29 2.0 6.0 0.00 0.00 0.00 46 1008.3
20260509230045 49 74 3.0 5.0 0.00 0.00 0.00 45 1008.1
20260509224542 49 9 2.0 5.0 0.00 0.00 0.00 47 1008.1
20260509223043 49 26 4.0 10.0 0.00 0.00 0.00 46 1008.1
20260509221542 48 0 1.0 5.0 0.00 0.00 0.00 47 1008.0
20260509220044 48 0 0.0 4.0 0.00 0.00 0.00 48 1007.8
20260509214541 47 337 4.0 8.0 0.00 0.00 0.00 48 1007.8
20260509213059 47 0 1.0 9.0 0.00 0.00 0.00 52 1007.7
20260509211608 47 30 6.0 13.0 0.00 0.00 0.00 50 1007.7
20260509210044 47 325 7.0 18.0 0.00 0.00 0.00 50 1007.5
20260509204557 47 340 16.0 21.0 0.00 0.00 0.00 49 1007.6
20260509203049 46 26 11.0 22.0 0.00 0.00 0.00 51 1007.4
20260509201546 46 346 18.0 24.0 0.00 0.00 0.00 49 1007.3
20260509200046 46 342 17.0 20.0 0.00 0.00 0.00 50 1007.0
20260509194546 46 5 14.0 25.0 0.00 0.00 0.00 49 1006.8
20260509193046 46 341 12.0 26.0 0.00 0.00 0.00 50 1006.8
20260509191544 46 326 16.0 25.0 0.00 0.00 0.00 51 1006.7
20260509190049 46 336 18.0 27.0 0.00 0.00 0.00 52 1006.6
20260509184547 45 349 24.0 31.0 0.00 0.00 0.00 52 1006.5
20260509183041 46 340 17.0 29.0 0.00 0.00 0.00 51 1006.0
20260509181545 46 342 25.0 31.0 0.00 0.00 0.00 55 1005.9
20260509180041 46 338 21.0 28.0 0.00 0.00 0.00 56 1005.4
20260509174550 46 334 20.0 27.0 0.00 0.00 0.00 55 1005.3
20260509173044 46 317 18.0 25.0 0.00 0.00 0.00 53 1004.9
20260509171545 46 340 18.0 26.0 0.00 0.00 0.00 54 1004.6
20260509170043 46 327 18.0 28.0 0.00 0.00 0.00 54 1004.4
20260509164543 46 327 18.0 30.0 0.00 0.00 0.00 56 1004.2
20260509163050 46 355 19.0 28.0 0.00 0.00 0.00 55 1003.8
20260509161546 45 338 22.0 29.0 0.00 0.00 0.00 55 1003.7
20260509160045 46 346 24.0 30.0 0.00 0.00 0.00 55 1003.5
20260509154542 46 325 27.0 33.0 0.00 0.00 0.00 53 1003.3
20260509153044 46 339 19.0 28.0 0.00 0.00 0.00 57 1003.0
20260509151541 46 329 19.0 25.0 0.00 0.00 0.00 55 1002.7
20260509150039 46 332 22.0 34.0 0.00 0.00 0.00 52 1002.5
20260509144544 46 306 20.0 35.0 0.00 0.00 0.00 50 1002.4
20260509143050 46 332 21.0 35.0 0.00 0.00 0.00 51 1002.2
20260509141545 45 343 20.0 27.0 0.00 0.00 0.00 53 1002.0
20260509140048 45 325 15.0 20.0 0.00 0.00 0.00 52 1001.7
20260509134550 45 313 12.0 17.0 0.00 0.00 0.00 55 1001.3
20260509133042 45 326 14.0 17.0 0.00 0.00 0.00 54 1001.3
20260509131544 45 311 13.0 18.0 0.00 0.00 0.00 51 1001.2
20260509130045 45 310 13.0 21.0 0.00 0.00 0.00 51 1001.2
20260509124545 45 309 13.0 16.0 0.00 0.00 0.00 53 1001.0
20260509123043 45 322 12.0 17.0 0.00 0.00 0.00 53 1000.8
20260509121541 44 319 12.0 15.0 0.00 0.00 0.00 54 1000.7
20260509120044 45 319 11.0 16.0 0.00 0.00 0.00 55 1000.6
20260509114553 45 307 11.0 15.0 0.00 0.00 0.00 53 1000.3
20260509113045 45 319 12.0 17.0 0.00 0.00 0.00 53 1000.1
20260509111541 45 311 13.0 16.0 0.00 0.00 0.00 53 1000.0
20260509110043 46 309 12.0 15.0 0.00 0.00 0.00 53 999.8
20260509104538 46 329 12.0 16.0 0.00 0.00 0.00 51 999.6
20260509103038 45 330 9.0 11.0 0.00 0.00 0.00 56 999.5
20260509101545 46 321 9.0 12.0 0.00 0.00 0.00 57 999.2
20260509100053 47 319 9.0 12.0 0.00 0.00 0.00 55 999.1
20260509094545 47 317 11.0 13.0 0.00 0.00 0.00 53 998.9
20260509093047 47 323 9.0 12.0 0.00 0.00 0.00 57 998.9
20260509091544 44 319 6.0 9.0 0.00 0.00 0.00 66 999.0
20260509090045 44 319 3.0 5.0 0.00 0.00 0.00 70 998.8
20260509084549 44 325 3.0 5.0 0.00 0.00 0.00 70 998.7
20260509083042 45 311 4.0 8.0 0.00 0.00 0.00 68 998.6
20260509081542 47 306 8.0 11.0 0.00 0.00 0.00 62 998.6
20260509080055 45 348 4.0 8.0 0.00 0.00 0.00 65 998.3
20260509074546 45 313 3.0 6.0 0.00 0.00 0.00 68 998.5
20260509073137 45 313 4.0 7.0 0.00 0.00 0.00 68 998.7
20260509071546 45 306 3.0 9.0 0.00 0.00 0.00 71 999.0
20260509070043 46 309 7.0 10.0 0.00 0.00 0.00 70 999.1
20260509064548 48 313 7.0 11.0 0.00 0.00 0.00 61 998.9
20260509063044 49 348 8.0 12.0 0.00 0.00 0.00 56 998.7
20260509061552 50 346 6.0 12.0 0.00 0.00 0.00 56 998.9
20260509060044 52 360 8.0 13.0 0.00 0.00 0.00 50 998.5
20260509054546 52 360 7.0 13.0 0.00 0.00 0.00 49 998.3
20260509053043 52 28 8.0 15.0 0.00 0.00 0.00 51 998.4
20260509051556 50 360 10.0 14.0 0.00 0.00 0.00 59 998.5
20260509050045 48 336 10.0 13.0 0.00 0.00 0.00 62 998.5
20260509044545 47 342 2.0 4.0 0.00 0.00 0.00 66 998.2
20260509043049 46 346 0.0 3.0 0.00 0.00 0.00 66 998.2
20260509041540 47 320 2.0 10.0 0.00 0.00 0.00 64 998.3
20260509040052 45 340 3.0 10.0 0.00 0.00 0.00 70 998.4
20260509034543 45 0 0.0 4.0 0.00 0.00 0.00 67 998.2
20260509033043 45 0 1.0 3.0 0.00 0.00 0.00 67 998.1
20260509031543 45 237 1.0 3.0 0.00 0.00 0.00 68 998.3
20260509030041 44 0 0.0 3.0 0.00 0.00 0.00 69 998.4
20260509024537 44 0 0.0 6.0 0.00 0.00 0.00 70 998.5
20260509023047 45 311 2.0 4.0 0.00 0.00 0.00 64 998.5
20260509021543 46 317 3.0 6.0 0.00 0.00 0.00 58 998.5
20260509020043 46 0 1.0 4.0 0.00 0.00 0.00 61 998.3
20260509014540 45 352 6.0 9.0 0.00 0.00 0.00 64 998.5
20260509013052 44 0 0.0 8.0 0.00 0.00 0.00 63 998.6
20260509011539 45 324 3.0 9.0 0.00 0.00 0.00 72 998.7
20260509010044 46 195 3.0 4.0 0.00 0.00 0.00 65 998.7
20260509004608 46 350 4.0 8.0 0.00 0.00 0.00 65 998.9
20260509003048 46 217 0.0 7.0 0.00 0.00 0.00 66 998.9
20260509001543 47 76 2.0 4.0 0.00 0.00 0.00 62 998.8
20260509000039 48 323 6.0 10.0 0.00 0.00 0.00 61 999.2